User: anonymous   Login
Location: Mentone
(34.5413°N, 85.5351°W)
Time: 13:25:59
(UTC-05:00)
Language:

SL-8 R/B - Orbit

View from above orbital plane
View from above orbital plane
View from above satellite
View from above satellite

Ground track
Ground track

The orbit data is extracted from the following two-line orbital elements,

1 33066U 08031G   17231.18821469 -.00000082 +00000-0 +18985-4 0  9999
2 33066 048.4433 175.7092 0007633 018.0056 073.8355 14.69554577491970
Epoch (UTC): 19 August 2017 04:31:01
Eccentricity: 0.0007633
inclination: 48.4433°
perigee height: 657 km
apogee height: 668 km
right ascension of ascending node: 175.7092°
argument of perigee: 18.0056°
revolutions per day: 14.69554577
mean anomaly at epoch: 73.8355°
orbit number at epoch: 49197

The dashed part of the orbit path shows where the satellite is in the earth's shadow,  

DLR